Flag for Switzerland

Past Weather in Montreux, Vaud, Switzerland — Yesterday and Last 2 Weeks

Now
42 °F

Quite cool.


Feels Like: 42 °F
Forecast: 40 / 32 °F
Wind: 2 mph from Southeast

Location: Aigle
Current Time: Sep 26, 2020 at 4:31:00 am
Latest Report: Sep 26, 2020 at 3:00 am
Visibility: N/A
Pressure29.84 "Hg
Humidity: 96%
Dew Point: 41 °F
Location of MontreuxLocation

Past Weather in Montreux — Graph

°F

Montreux Temperature Yesterday

Maximum temperature yesterday: 58 °F (at 1:00 am)
Minimum temperature yesterday: 43 °F (at 10:00 pm)
Average temperature yesterday: 50 °F

High & Low Weather Summary for the Past Weeks

 TemperatureHumidityPressure
High81 °F (Sep 16, 6:00 pm)98% (Sep 20, 5:00 am)30.30 "Hg (Sep 20, 5:00 am)
Low42 °F (Sep 26, 2:00 am)47% (Sep 16, 6:00 pm)29.63 "Hg (Sep 25, 4:00 am)
Average64 °F82%30.01 "Hg
* Reported Sep 11 3:00 am — Sep 26 3:00 am, Montreux. Weather by CustomWeather, © 2020

Note: Actual official high and low records may vary slightly from our data, if they occured in-between our weather recording intervals... More about our weather records

Montreux Weather History for the Previous 24 Hours

Scroll right to see more
 ConditionsComfort  
Time TempWeatherWind HumidityBarometerVisibility
3:00 am
Sat, Sep 26
42 °FQuite cool.2 mph96%29.84 "HgN/A
2:00 am42 °FQuite cool.3 mph93%29.85 "HgN/A
1:00 am43 °FQuite cool.3 mph94%29.84 "HgN/A
12:00 am43 °FQuite cool.2 mph96%29.82 "HgN/A
11:00 pm
Fri, Sep 25
43 °FQuite cool.1 mph94%29.81 "HgN/A
10:00 pm43 °FQuite cool.6 mph93%29.80 "HgN/A
9:00 pm44 °FQuite cool.6 mph89%29.78 "HgN/A
8:00 pm44 °FDrizzle. Overcast.3 mph96%29.75 "Hg16 mi
7:00 pm44 °FQuite cool.3 mph93%29.75 "HgN/A
6:00 pm47 °FCool.10 mph80%29.72 "HgN/A
5:00 pm50 °FLight rain. Overcast.No wind84%29.70 "Hg6 mi
4:00 pm50 °FCool.3 mph76%29.67 "HgN/A
3:00 pm51 °FCool.5 mph80%29.67 "HgN/A
2:00 pm50 °FRain. Overcast.9 mph80%29.68 "Hg6 mi
1:00 pm54 °FCool.7 mph68%29.63 "HgN/A
12:00 pm54 °FCool.2 mph65%29.65 "HgN/A
11:00 am51 °FLow clouds.1 mph79%29.70 "Hg19 mi
10:00 am50 °FCool.1 mph81%29.70 "HgN/A
9:00 am49 °FCool.1 mph96%29.71 "HgN/A
8:00 am48 °FRain. Low clouds.3 mph95%29.74 "Hg2 mi
7:00 am49 °FCool.2 mph90%29.74 "HgN/A
6:00 am50 °FCool.21 mph82%29.72 "HgN/A
5:00 am53 °FRain. Overcast.24 mph84%29.64 "Hg5 mi
4:00 am55 °FCool.3 mph93%29.63 "HgN/A
Weather by CustomWeather, © 2020

See weather overview